Date String (YYYY-MM-DD hh:mm:ss) UTC,Instrument flags,Ambient pressure (hPa),Sample flow (lpm),Bypass flow (lpm),Sample temperature (°C),Ambient temperature (°C),ASC tube jacket temperature (°C),LED temperature (°C),Box temperature (°C),Sample RH (%),Span deviation,Mass concentration (μg/m³),Mass concentration (μg/m³),Mass concentration (μg/m³)
DateTimeUTC,F1_M11,P_M11,Q1_M11,Q2_M11,T1_M11,T2_M11,T3_M11,T4_M11,T5_M11,U1_M11,ZSPAN_M11,X0_M11,X2_M11,X1_M11
2021-11-17 10:00:00,,0828.7,5.00,0.00,24.4,23.5,00.0,33.6,26.2,11.6,0000.0,0015.65,0003.71,0000.81
2021-11-17 10:01:00,,0828.9,4.99,0.00,24.4,23.6,00.0,33.6,26.2,11.6,0000.0,0014.95,0003.70,0000.82
2021-11-17 10:02:00,,0829.1,5.00,0.00,24.4,23.6,00.0,33.6,26.3,11.6,0000.0,0014.29,0003.69,0000.81
2021-11-17 10:03:00,,0828.7,5.01,0.00,24.4,23.6,00.0,33.6,26.2,11.6,0000.0,0014.22,0003.68,0000.80
2021-11-17 10:04:00,,0829.0,5.00,0.00,24.4,23.6,00.0,33.6,26.2,11.6,0000.0,0013.07,0003.65,0000.80
2021-11-17 10:05:00,,0828.9,4.99,0.00,24.4,23.6,00.0,33.6,26.2,11.6,0000.0,0013.13,0003.65,0000.78
2021-11-17 10:06:00,,0828.9,5.01,0.00,24.4,23.5,00.0,33.5,26.2,11.6,0000.0,0013.48,0003.61,0000.76
2021-11-17 10:07:00,,0828.9,5.00,0.00,24.4,23.5,00.0,33.5,26.2,11.6,0000.0,0013.50,0003.59,0000.75
2021-11-17 10:08:00,,0828.8,5.00,0.00,24.4,23.5,00.0,33.5,26.2,11.6,0000.0,0013.68,0003.55,0000.74
2021-11-17 10:09:00,,0829.1,5.00,0.00,24.4,23.5,00.0,33.5,26.2,11.6,0000.0,0014.50,0003.48,0000.74
2021-11-17 10:10:00,,0828.9,5.01,0.00,24.4,23.5,00.0,33.5,26.1,11.6,0000.0,0014.47,0003.45,0000.75
2021-11-17 10:11:00,,0829.1,4.99,0.00,24.4,23.4,00.0,33.5,26.1,11.6,0000.0,0015.11,0003.44,0000.76
2021-11-17 10:12:00,,0829.1,5.00,0.00,24.3,23.4,00.0,33.5,26.1,11.7,0000.0,0015.37,0003.47,0000.76
2021-11-17 10:13:00,,0828.8,5.00,0.00,24.3,23.4,00.0,33.5,26.1,11.7,0000.0,0015.25,0003.49,0000.78
2021-11-17 10:14:00,,0828.7,5.00,0.00,24.3,23.4,00.0,33.4,26.1,11.7,0000.0,0016.34,0003.47,0000.79
2021-11-17 10:15:00,,0829.0,5.00,0.00,24.3,23.4,00.0,33.4,26.0,11.7,0000.0,0016.44,0003.48,0000.80
2021-11-17 10:16:00,,0829.3,5.00,0.00,24.3,23.4,00.0,33.4,26.0,11.8,0000.0,0016.29,0003.47,0000.80
2021-11-17 10:17:00,,0829.3,5.01,0.00,24.3,23.4,00.0,33.4,26.0,11.8,0000.0,0015.83,0003.47,0000.80
2021-11-17 10:18:00,,0829.1,5.01,0.00,24.2,23.4,00.0,33.4,26.0,11.8,0000.0,0015.37,0003.42,0000.79
2021-11-17 10:19:00,,0828.7,4.99,0.00,24.2,23.4,00.0,33.4,26.0,11.8,0000.0,0015.61,0003.43,0000.80
2021-11-17 10:20:00,,0828.7,5.00,0.00,24.2,23.4,00.0,33.4,26.0,11.9,0000.0,0015.36,0003.47,0000.79
2021-11-17 10:21:00,,0829.0,5.01,0.00,24.2,23.4,00.0,33.4,26.0,11.9,0000.0,0015.22,0003.44,0000.77
2021-11-17 10:22:00,,0829.2,4.99,0.00,24.2,23.4,00.0,33.3,26.0,11.9,0000.0,0014.17,0003.37,0000.75
2021-11-17 10:23:00,,0828.7,5.00,0.00,24.2,23.4,00.0,33.3,26.0,12.0,0000.0,0013.64,0003.39,0000.77
2021-11-17 10:24:00,,0829.1,5.01,0.00,24.2,23.4,00.0,33.3,26.0,12.0,0000.0,0013.61,0003.35,0000.77
2021-11-17 10:25:00,,0828.9,4.99,0.00,24.2,23.4,00.0,33.3,26.0,12.0,0000.0,0013.12,0003.32,0000.76
2021-11-17 10:26:00,,0828.9,5.00,0.00,24.2,23.3,00.0,33.3,25.9,12.1,0000.0,0013.86,0003.31,0000.76
2021-11-17 10:27:00,,0828.9,5.00,0.00,24.2,23.3,00.0,33.3,25.9,12.1,0000.0,0014.06,0003.32,0000.76
2021-11-17 10:28:00,,0828.9,5.01,0.00,24.1,23.3,00.0,33.3,25.9,12.2,0000.0,0014.07,0003.35,0000.77
2021-11-17 10:29:00,,0828.9,5.00,0.00,24.1,23.3,00.0,33.3,25.9,12.2,0000.0,0014.30,0003.39,0000.78
2021-11-17 10:30:00,,0828.9,5.00,0.00,24.1,23.2,00.0,33.3,25.9,12.3,0000.0,0013.61,0003.40,0000.78
2021-11-17 10:31:00,,0828.9,5.00,0.00,24.1,23.1,00.0,33.2,25.9,12.3,0000.0,0013.82,0003.40,0000.80
2021-11-17 10:32:00,,0829.1,4.99,0.00,24.1,23.2,00.0,33.2,25.9,12.4,0000.0,0014.65,0003.50,0000.82
2021-11-17 10:33:00,,0829.3,4.99,0.00,24.1,23.2,00.0,33.2,25.9,12.4,0000.0,0015.18,0003.53,0000.82
2021-11-17 10:34:00,,0829.2,5.02,0.00,24.1,23.2,00.0,33.2,25.9,12.4,0000.0,0015.31,0003.45,0000.79
2021-11-17 10:35:00,,0829.2,4.98,0.00,24.1,23.3,00.0,33.2,25.9,12.5,0000.0,0014.95,0003.44,0000.80
2021-11-17 10:36:00,,0829.2,5.01,0.00,24.1,23.3,00.0,33.2,25.9,12.5,0000.0,0014.39,0003.43,0000.80
2021-11-17 10:37:00,,0829.0,4.99,0.00,24.1,23.3,00.0,33.2,26.0,12.5,0000.0,0013.35,0003.40,0000.79
2021-11-17 10:38:00,,0828.7,5.01,0.00,24.1,23.3,00.0,33.2,25.9,12.5,0000.0,0013.37,0003.37,0000.80
2021-11-17 10:39:00,,0828.7,5.00,0.00,24.1,23.3,00.0,33.2,25.9,12.5,0000.0,0013.75,0003.38,0000.80
2021-11-17 10:40:00,,0828.7,5.00,0.00,24.1,23.3,00.0,33.2,26.0,12.6,0000.0,0014.41,0003.41,0000.80
2021-11-17 10:41:00,,0828.8,4.99,0.00,24.2,23.4,00.0,33.2,26.0,12.6,0000.0,0015.42,0003.43,0000.81
2021-11-17 10:42:00,,0828.7,5.00,0.00,24.2,23.3,00.0,33.2,26.0,12.6,0000.0,0015.47,0003.44,0000.82
2021-11-17 10:43:00,,0829.0,5.00,0.00,24.2,23.4,00.0,33.2,26.0,12.6,0000.0,0014.83,0003.38,0000.81
2021-11-17 10:44:00,,0829.4,5.01,0.00,24.2,23.4,00.0,33.2,26.0,12.6,0000.0,0014.58,0003.35,0000.82
2021-11-17 10:45:00,,0829.3,5.01,0.00,24.2,23.4,00.0,33.2,26.0,12.6,0000.0,0014.01,0003.36,0000.83
2021-11-17 10:46:00,,0829.3,4.99,0.00,24.2,23.4,00.0,33.2,26.0,12.7,0000.0,0013.67,0003.42,0000.82
2021-11-17 10:47:00,,0829.3,5.00,0.00,24.2,23.4,00.0,33.2,26.0,12.7,0000.0,0013.60,0003.43,0000.81
2021-11-17 10:48:00,,0829.3,5.00,0.00,24.2,23.4,00.0,33.2,26.0,12.7,0000.0,0014.47,0003.47,0000.83
2021-11-17 10:49:00,,0829.2,5.01,0.00,24.2,23.4,00.0,33.2,26.0,12.7,0000.0,0014.35,0003.52,0000.84
2021-11-17 10:50:00,,0829.1,5.00,0.00,24.2,23.4,00.0,33.2,26.0,12.8,0000.0,0014.20,0003.53,0000.86
2021-11-17 10:51:00,,0829.3,4.98,0.00,24.2,23.4,00.0,33.2,26.0,12.8,0000.0,0013.42,0003.49,0000.86
2021-11-17 10:52:00,,0829.3,5.01,0.00,24.2,23.3,00.0,33.2,26.0,12.8,0000.0,0013.63,0003.49,0000.86
2021-11-17 10:53:00,,0829.1,4.99,0.00,24.1,23.3,00.0,33.2,25.9,12.8,0000.0,0013.04,0003.46,0000.85
2021-11-17 10:54:00,,0828.8,5.00,0.00,24.1,23.3,00.0,33.2,25.9,12.8,0000.0,0013.56,0003.48,0000.84
2021-11-17 10:55:00,,0829.1,5.00,0.00,24.1,23.3,00.0,33.2,25.9,12.8,0000.0,0013.79,0003.56,0000.87
2021-11-17 10:56:00,,0829.4,5.00,0.00,24.1,23.2,00.0,33.2,25.9,12.8,0000.0,0013.75,0003.60,0000.89
2021-11-17 10:57:00,,0829.0,5.00,0.00,24.1,23.1,00.0,33.1,25.8,12.8,0000.0,0013.85,0003.52,0000.88
2021-11-17 10:58:00,,0829.0,4.99,0.00,24.0,23.1,00.0,33.1,25.7,12.9,0000.0,0014.11,0003.52,0000.87
2021-11-17 10:59:00,,0829.3,5.01,0.00,24.0,23.1,00.0,33.1,25.7,12.9,0000.0,0013.22,0003.51,0000.85
